Regional Weather Roundup
Issued by NWS Upton, NY

Current Version | Previous Version | Graphics & Text | Print | Product List | Glossary Off
Versions: 1 2 3 4 5 6 7 8 9 10 11 12 13 14 15 16 17 18 19 20 21 22 23 24 25 26 27 28 29 30 31 32 33 34 35 36 37 38 39 40 41 42 43 44 45 46 47 48 49 50

000
ASUS41 KOKX 091804
RWROKX

REGIONAL WEATHER ROUNDUP
NATIONAL WEATHER SERVICE NEW YORK NY
100 PM EST TUE FEB 09 2016

NOTE: "FAIR" INDICATES FEW OR NO CLOUDS BELOW 12,000 FEET WITH NO
SIGNIFICANT WEATHER AND/OR OBSTRUCTIONS TO VISIBILITY.

NYZ071-072-176-178-NJZ106-104-091900-
NEW YORK CITY METRO AREA


CITY           SKY/WX    TMP DP  RH WIND       PRES   REMARKS
CENTRAL PARK   CLOUDY    34  22  61 CALM      29.60F
LAGUARDIA APRT PTSUNNY   33  22  63 VRB7      29.59F WCI  27
KENNEDY INTL   PTSUNNY   33  23  66 NE5       29.60F WCI  29
NEWARK/LIBERTY CLOUDY    33  24  69 VRB3      29.59F
BRNX BOT. GARD   N/A     32  23  69 SE6       29.59F WCI  26
TETERBORO      PTSUNNY   34  21  59 CALM      29.58F
$$

NYZ177-179-078>081-091900-
LONG ISLAND NEW YORK

CITY           SKY/WX    TMP DP  RH WIND       PRES   REMARKS
FARMINGDALE    CLOUDY    32  25  75 N9        29.58F WCI  24
ISLIP          CLOUDY    31  24  75 NE8       29.57F WCI  23
SHIRLEY        CLOUDY    31  23  72 N9        29.59F WCI  23
RIVERHEAD        N/A     36  23  60 E1        29.56F
WESTHAMPTON    CLOUDY    30  24  78 NE8       29.59F WCI  22
EAST HAMPTON   CLOUDY    29  24  82 N7        29.59F WCI  21
MONTAUK POINT    N/A     30  24  78 N6        29.59F WCI  24
$$

NYZ052-065-067-091900-
HUDSON VALLEY

CITY           SKY/WX    TMP DP  RH WIND       PRES   REMARKS
WHITE PLAINS   MOSUNNY   31  19  61 CALM      29.56F
NEWBURGH       MOSUNNY   30  23  74 VRB5      29.57F WCI  25
MONTGOMERY     MOSUNNY   32  22  66 E3        29.55F
POUGHKEEPSIE   FLURRIES  31  20  63 CALM      29.57F
ALBANY         PTSUNNY   29  19  66 CALM      29.58F
$$

NJZ001-105-106-008-010-013-015-019>022-104-091900-
NEW JERSEY

CITY           SKY/WX    TMP DP  RH WIND       PRES   REMARKS
NEWARK/LIBERTY CLOUDY    33  24  69 VRB3      29.59F
TETERBORO      PTSUNNY   34  21  59 CALM      29.58F
CALDWELL       CLOUDY    31  22  69 CALM      29.58F
MORRISTOWN     CLOUDY    30  25  80 CALM      29.59F
SOMERVILLE     CLOUDY    32  25  75 E3        29.57F
SUSSEX         CLOUDY    30  23  75 CALM      29.55F
ANDOVER          N/A     31  23  72 N3        29.55F
TRENTON        CLOUDY    33  27  78 E6        29.56F WCI  28
MILLVILLE      CLOUDY    39  35  86 NE8       29.54F WCI  33
ATLANTIC CITY  CLOUDY    38  25  59 NE13      29.54F WCI  30
WRIGHTSTOWN    CLOUDY    34  34  99 NE7       29.54F WCI  28
TOMS RIVER     CLOUDY    34  28  80 NE8       29.57F WCI  27
BELMAR         CLOUDY    32  21  64 NE7       29.57F WCI  26
$$

PAZ047>061-062-071-091900-
EASTERN PENNSYLVANIA

CITY           SKY/WX    TMP DP  RH WIND       PRES   REMARKS
PHILADELPHIA   FLURRIES  36  29  75 NE8       29.56F WCI  30
ALLENTOWN      CLOUDY    32  25  75 E3        29.56F
SCRANTON       CLOUDY    33  25  72 NW5       29.51F WCI  29
$$

CTZ002-004>006-009-010-012-RIZ004-006-007-MAZ004-011-015-091900-
SOUTHERN NEW ENGLAND
 IN CT

CITY           SKY/WX    TMP DP  RH WIND       PRES   REMARKS
BRADLEY INTL   CLOUDY    27  18  69 NE7       29.60F WCI  19
HARTFORD       FLURRIES  28  19  69 NE3       29.61F
DANBURY        SUNNY     30  18  60 CALM      29.57F
WTRBRY/OXFORD  NOT AVBL
BRIDGEPORT     MOSUNNY   30  22  72 E9        29.60F WCI  22
MERIDEN        CLOUDY    29  19  66 N9        29.59F WCI  20
NEW HAVEN      PTSUNNY   30  20  66 N5        29.59F WCI  25
CHESTER        FAIR      30  21  69 NE7       29.57F WCI  23
GROTON         CLOUDY    30  23  75 N9        29.58F WCI  22
WILLIMANTIC    CLOUDY    30  19  63 NE5       29.59F WCI  25

 IN RI

CITY           SKY/WX    TMP DP  RH WIND       PRES   REMARKS
PROVIDENCE     CLOUDY    29  20  69 N8        29.60F WCI  21
BLOCK ISLAND   CLOUDY    30  27  86 NE8G17    29.56F WCI  23
WESTERLY       CLOUDY    32  23  69 N6        29.59F WCI  26

 IN MA

CITY           SKY/WX    TMP DP  RH WIND       PRES   REMARKS
BOSTON         CLOUDY    26  18  71 N6        29.62F WCI  19
WORCESTER      CLOUDY    23  16  74 N5        29.55F WCI  17
WESTFIELD      CLOUDY    27  17  66 SE5       29.59F WCI  22
PROVINCETOWN   CLOUDY    33  26  75 N10       29.58F WCI  25
NANTUCKET      CLOUDY    34  27  75 N12       29.54F WCI  25
$$

ANZ330-335-338-340-345-350-353-355-091900-
COASTAL MARINE OBSERVATIONS


STATION/POSITION TIME  SKY/WX   TEMP    WIND        PRES    VSBY  WAVE
                                AIR SEA DIR/SP/G                  HT/PER
                 (UTC)          (F)     (DEG/KT/KT) (MB)    (MI)  (FT/S)
NY HARB ENTRANCE 1650            32 43   50/ 12/ 16 1001.9          6/14
4S FIRE IS       NOT AVBL
20S FIRE ISLAND  1650            34 44   50/ 16/ 17 1001.7          6/ 9
GREAT SOUTH BAY  NOT AVBL
23SW MTP         1750            32 46   10/ 16/ 17 1000.6          7/11
HUDSON CANYON    1650            39 49              1000.4          8/14
KINGS POINT      1700            30 38  110/  4/  8 1002.0
EXECUTION ROCKS  NOT AVBL
CENTRAL LI SOUND 1730            29      20/  4/  8   N/A           1
EASTERN LI SOUND 1700            31 42  360/  8/ 10   N/A
ROBBINS REEF     1700            31     360/  7/ 10 1001.4
$$


>>>>>>>>>>>>>>>>>>>>>>>>>>>> KEY <<<<<<<<<<<<<<<<<<<<<<<<<<<
>                                                          <
>     SKY/WX - SKY CONDITION/PRESENT WEATHER               <
>     TMP    - TEMPERATURE IN FAHRENHEIT                   <
>     DP     - DEWPOINT IN FAHRENHEIT                      <
>     RH     - RELATIVE HUMIDITY IN PERCENT                <
>     WIND   - DIRECTION AND SPEED IN MPH                  <
>     PRES   - MEAN SEA LEVEL PRESSURE IN INCHES OF HG     <
>     WCI    - WIND CHILL INDEX                            <
>     VSB    - VISIBILITY IN MILES                         <
>     HX     - HEAT INDEX                                  <
>     TC     - TEMPERATURE IN CELSIUS                      <
>     VRB    - VARIABLE WIND DIRECTION                     <
>                                                          <
>>>>>>>>>>>>>>>>>>>>>>>>>>>> KEY <<<<<<<<<<<<<<<<<<<<<<<<<<<





USA.gov is the U.S. government's official web portal to all federal, state and local government web resources and services.